Torna al catalogo

STARLINK-31481

AttivoComunicazioniVLEO
NORAD 59541·PAYLOAD·🇺🇸 United States

Lanciato Apr 18, 2024 da Cape Canaveral Space Force Station

Loading…

Prossimi Passaggi (prossime 24 ore)

TLE

AggiornatoSource: CelesTrak SupGP

Epoca: Sep 14, 2026, 20:41 UTC

1 59541C 24074H   26257.86229167  .00009218  00000+0  33387-3 0  2577
2 59541  43.0022 354.7362 0001507 269.8758 354.3620 15.27573343    19

Traccia STARLINK-31481 in tempo reale con AllMySat

Download on the App Store